This is the latest recevied weather packets stored in our database for station/object IZ1UQG-1. If no packets are shown the sender has not sent any weather packets the latest 10 day(s).
| Time | Temp. | Humidity | Pressure | Rain* | Wind** | Luminosity | Snow |
|---|---|---|---|---|---|---|---|
| 1777836539 | 21.67° C | 42% | 1015.7 hPa | 205.49 mm | - | - | - |
| 1777836239 | 21.67° C | 42% | 1015.7 hPa | 218.44 mm | - | - | - |
| 1777835939 | 22.22° C | 42% | 1015.5 hPa | 199.39 mm | - | - | - |
| 1777835639 | 22.22° C | 42% | 1015.4 hPa | 204.98 mm | - | - | - |
| 1777835339 | 22.22° C | 42% | 1015.3 hPa | 207.52 mm | - | - | - |
| 1777835039 | 22.78° C | 42% | 1015.1 hPa | 222.5 mm | - | - | - |
| 1777834739 | 22.78° C | 42% | 1015.2 hPa | 205.99 mm | - | - | - |
| 1777834439 | 22.78° C | 42% | 1015.1 hPa | 244.86 mm | - | - | - |
| 1777834139 | 23.33° C | 41% | 1015.2 hPa | 220.98 mm | - | - | - |
| 1777833839 | 23.33° C | 41% | 1014.9 hPa | 238.25 mm | - | - | - |
| 1777833539 | 23.33° C | 41% | 1014.9 hPa | 225.3 mm | - | - | - |
| 1777833239 | 23.33° C | 41% | 1014.9 hPa | 18.8 mm | - | - | - |
| 1777832939 | 23.89° C | 41% | 1014.9 hPa | 246.89 mm | - | - | - |
| 1777832639 | 23.89° C | 41% | 1014.7 hPa | 248.41 mm | - | - | - |
| 1777832339 | 23.89° C | 41% | 1014.7 hPa | 231.9 mm | - | - | - |
| 1777832039 | 23.89° C | 41% | 1014.8 hPa | 253.24 mm | - | - | - |
| 1777831739 | 23.89° C | 41% | 1014.7 hPa | 217.42 mm | - | - | - |
| 1777831439 | 24.44° C | 41% | 1014.6 hPa | 216.92 mm | - | - | - |
| 1777831139 | 24.44° C | 41% | 1014.7 hPa | 197.87 mm | - | - | - |
| 1777830839 | 24.44° C | 41% | 1014.7 hPa | 192.53 mm | - | - | - |
| 1777830539 | 24.44° C | 41% | 1014.8 hPa | 165.61 mm | - | - | - |
| 1777830239 | 25° C | 41% | 1014.6 hPa | 172.97 mm | - | - | - |
| 1777829939 | 25° C | 41% | 1014.8 hPa | 134.62 mm | - | - | - |
| 1777829639 | 25° C | 40% | 1014.7 hPa | 140.72 mm | - | - | - |
| 1777829339 | 25° C | 40% | 1014.7 hPa | 130.81 mm | - | - | - |
* Rain latest hour (hover to see other rain measurements)
** Current wind speed in m/s (hover to see current wind gust speed)